Location: Unspecified
(0.0000°N, 0.0000°E)
Time: 19:05:37
(UTC+00:00)

FREGAT DEB (TANK) - Visible Passes

Search period start: 06 December 2025 00:00
Search period end: 16 December 2025 00:00
Orbit: 255 x 2024 km, 50.3° (Epoch: 06 December)

Date Brightness Start Highest point End Pass type
(mag) Time Alt. Az. Time Alt. Az. Time Alt. Az.
13 Dec ? 22:03:28 10° S 22:03:56 11° S 22:03:56 11° S visible
14 Dec ? 21:26:04 10° S 21:27:49 14° S 21:27:49 14° S visible
15 Dec ? 20:48:50 10° S 20:51:34 14° SSE 20:51:34 14° SSE visible
